Tracking 35280 objects as of 7-Sep-2026
HD Live streaming from Space Station
objects crossing your sky now

COSMOS 67


COSMOS 67 is no longer on orbit


NORAD ID: 1382
Int'l Code: 1965-040A
Launch date: May 25, 1965
Source: Commonwealth of Independent States (former USSR) (CIS)
Launch site: TYURATAM MISSILE AND SPACE COMPLEX (TTMTR)
Decay date: 1965-06-02
Your satellite tracking list
Your tracking list is empty




NASA's NSSDC Master Catalog

Two Line Element Set (TLE):
1 01382U 65040  A 65150.93552536  .00077002 +14148-4 +00000-0 0  9992
2 01382 051.8216 026.8088 0100401 059.4926 301.5181 16.01724883000887
Source of the keplerian elements: AFSPC